Location: Kellogg
(38.0159°N, 90.0546°W)
Time: 15:34:13
(UTC+00:00)

Altair - Pass Details

Date: 15 September 2024
Orbit: 1501 x 1682 km, 47.2° (Epoch: 15 October)

Event Time Altitude Azimuth Distance (km) Brightness Sun altitude
Exits shadow 07:43:08 53° 96° (E) 1,976 8.0 -42.2°
Drops below altitude 10° 07:51:02 10° 62° (ENE) 3,946 10.2 -41.2°
Sets 07:54:16 0° 59° (ENE) 4,939 10.9 -40.8°
